{"data":{"norad_id":56720,"intl_designator":"2023-068L","name":"ONEWEB-0684","alt_names":[],"object_type":"PAYLOAD","status":"ACTIVE","operator":null,"country":"UK","launch_date":"2023-05-20","launch_site_code":"AFWTR","launch_vehicle":null,"mission":null,"orbit_class":"UNKNOWN","rcs_meters":null,"size_class":null,"mass_kg":null,"dimensions":null,"purposes":["comms"],"wikipedia_slug":null,"has_3d_model":false,"image_url":null,"decayed_at":null,"tle_current":{"epoch":"2026-09-19T21:45:50.141376Z","epoch_age_seconds":69603,"freshness":"FRESH","line1":"1 56720U 23068L   26262.90683034  .00000078  00000+0  17185-3 0  9999","line2":"2 56720  87.8995 240.3015 0001998  43.9518 316.1771 13.15549042161705","mean_motion":13.15549042,"eccentricity":0.0001998,"inclination_deg":87.8995,"raan_deg":240.3015,"arg_perigee_deg":43.9518,"mean_anomaly_deg":316.1771,"bstar":0.00017185,"rev_number":16170,"period_min":109.4600014159,"perigee_km":1200.2544124023,"apogee_km":1203.283342791,"semimajor_km":7579.9058775967,"source":"CELESTRAK","updated_at":"2026-09-20T09:00:44.796380Z"}}}